#timestamp,LO_Frequency,Hit,StdDev 
1633590015.6,286046999.5,N
1633590035.4,286046999.1,N
1633590055.3,286046996.6,N
1633590075.1,286046999.2,N
1633590095.9,286046999.2,N
1633590115.7,286047001.0,N
1633590135.5,286047001.0,N
1633590155.4,286047001.2,N
1633590175.2,286047000.2,N
1633590195.0,286047002.8,N
1633590195.9,286047002.8,N
1633590215.8,286047000.4,N
1633590235.6,286047002.1,N
1633590255.5,286047004.1,N
1633590275.3,286047003.0,N
1633590295.1,286047003.0,N
1633590315.9,286047005.7,N
1633590335.7,286047005.3,N
1633590355.6,286047005.4,N
1633590375.4,286047005.1,N
1633590395.2,286047006.0,N
1633590415.1,286047006.0,N
1633590416.0,286047006.0,N
1633590435.8,286047005.6,N
1633590455.6,286047005.9,N
1633590475.5,286047007.6,N
1633590495.3,286047002.9,N
1633590515.2,286047003.0,N
1633590535.9,286047003.8,N
1633590555.7,286047003.9,N
1633590575.6,286047003.7,N
1633590595.4,286047002.1,N
1633590615.2,286047002.0,N
1633590635.1,286047001.5,N
1633590636.0,286047001.5,N
1633590655.8,286047003.1,N
1633590675.7,286047005.7,N
1633590695.5,286047005.3,N
1633590715.3,286047003.4,N
1633590735.2,286047005.5,Y
1633590755.0,286047000.3,P
1633590755.9,286047000.3,N
1633590775.8,286047000.3,N
1633590795.6,286046999.9,N
1633590815.4,286047000.5,N
1633590835.3,286047000.8,N
1633590855.1,286046998.5,N
1633590875.9,286046998.1,N
1633590895.7,286047001.2,N
1633590915.5,286046998.2,N
1633590935.4,286046999.3,N
1633590955.2,286046997.2,N
1633590975.0,286046997.6,N
1633590976.0,286046997.6,N
1633590995.8,286046995.4,N
1633591015.6,286046997.6,N
1633591035.5,286046995.4,N
1633591055.3,286046997.9,N
1633591075.1,286046997.6,N
1633591095.9,286046996.9,N
1633591115.7,286046997.5,N
1633591135.6,286046994.9,N
1633591155.4,286046998.0,N
1633591175.2,286046995.5,N
1633591195.1,286046997.7,N
1633591196.0,286046997.7,N
1633591215.8,286046997.0,N
1633591235.6,286046996.7,N
1633591255.5,286046999.5,N
1633591275.3,286046999.2,N
1633591295.2,286046999.0,N
1633591315.9,286046999.2,N
1633591335.7,286046997.2,N
1633591355.6,286046996.7,N
1633591375.4,286046997.0,N
1633591395.3,286046997.3,N
1633591415.1,286046996.8,N
1633591416.0,286046996.8,N
1633591435.8,286046996.7,N
1633591455.7,286046996.9,N
1633591475.5,286046996.8,N
1633591495.3,286046997.0,N
1633591515.2,286046999.1,N
1633591535.0,286046997.1,N
1633591535.9,286046997.1,N
1633591555.8,286046998.6,N
1633591575.6,286047001.2,N
1633591595.4,286047001.0,N
1633591615.3,286046998.5,N
1633591635.1,286047000.8,N
1633591655.9,286046998.4,N
1633591675.2,286046999.2,N
1633591695.0,286046999.1,N
1633591696.0,286046999.1,N
1633591715.8,286046999.4,N
1633591735.6,286046996.8,N
1633591755.5,286046995.1,Y
1633591775.3,286046999.4,P
1633591795.1,286046999.6,N
1633591815.9,286046999.5,N
1633591835.7,286046996.9,Y
1633591855.6,286046999.6,P
1633591875.4,286046997.1,P
1633591895.2,286046997.4,N
1633591915.1,286046996.5,Y
1633591916.0,286046996.5,P
1633591935.8,286047000.2,N
1633591955.7,286047002.6,N
1633591975.5,286047001.6,N
1633591995.3,286047001.6,N
1633592015.2,286047002.8,N
1633592035.9,286047000.6,N
1633592055.3,286046998.1,N
1633592075.2,286046998.1,N
1633592095.0,286047011.9,Y
1633592095.9,286046999.0,P
1633592115.8,286046999.6,N
1633592135.6,286046999.5,N
1633592155.4,286046998.3,Y
1633592175.3,286047000.4,P
1633592195.1,286047000.9,N
1633592215.8,286046999.9,N
1633592235.7,286047000.2,N
1633592255.5,286047000.4,N
1633592275.4,286047001.1,N
1633592295.2,286047000.0,N
1633592315.0,286047000.0,N
1633592315.9,286047000.0,N
1633592335.8,286047000.6,N
1633592355.6,286046997.0,Y
1633592375.4,286046997.1,P
1633592395.3,286046996.8,N
1633592415.1,286046996.7,N
1633592435.9,286046999.2,N
1633592455.7,286046997.5,N
1633592475.5,286046995.7,Y
1633592495.4,286046997.8,P
1633592515.2,286046996.5,P
1633592535.1,286047001.2,N
1633592536.0,286047001.2,N
1633592555.8,286046998.7,N
1633592575.6,286047001.2,N
1633592595.5,286046998.2,N
1633592615.3,286047001.0,N
1633592635.1,286047000.6,N
1633592655.9,286046998.3,N
1633592675.7,286047001.2,N
1633592695.6,286046998.4,N
1633592715.4,286046998.9,N
1633592735.2,286046999.4,N
1633592755.1,286046998.9,N
1633592756.0,286046998.9,N
1633592775.8,286046999.0,N
1633592795.7,286046998.2,N
1633592815.5,286047000.4,N
1633592835.3,286046998.3,N
1633592855.2,286046999.4,N
1633592875.9,286046999.3,N
1633592895.7,286046998.7,N
1633592915.6,286046998.3,N
1633592935.4,286047001.0,N
1633592955.3,286047000.1,N
1633592975.1,286046999.9,N
1633592976.0,286046999.9,N
1633592995.8,286047011.9,Y
1633593015.7,286047000.5,P
1633593035.5,286046998.9,N
1633593055.3,286047000.8,N
1633593075.2,286047001.0,N
1633593095.0,286047002.8,Y
1633593095.9,286047002.8,P
1633593115.8,286047002.4,N
1633593135.6,286047000.3,N
1633593155.5,286047000.0,N
1633593175.3,286046999.8,N
1633593195.1,286047000.0,N
1633593215.9,286046999.9,N
1633593235.7,286047002.4,N
1633593255.5,286047002.2,N
1633593275.4,286047004.3,Y
1633593295.2,286047001.4,P
1633593315.1,286047002.0,P
1633593316.0,286047002.0,P
1633593335.8,286047001.8,Y
1633593355.6,286047000.6,P
1633593375.5,286047000.0,N
1633593395.3,286047000.2,N
1633593415.2,286047000.1,N
1633593435.9,286046999.9,N
1633593455.7,286047000.0,N
1633593475.6,286047002.6,Y
1633593495.4,286046998.1,P
1633593515.2,286046998.3,N
1633593535.1,286047001.2,N
1633593536.0,286047001.2,N
1633593555.8,286046998.1,N
1633593575.7,286047000.9,N
1633593595.5,286047002.4,N
